311P/PanSTARRS (2004)

Japanese version
Home page
Updated on November 3, 2020

---------------------------------------------------------------------

* Profile

* Orbital Elements

Epoch 2004 July 14.0 TT = JDT 2453200.5
T 2004 July 27.67474 TT                                 MPCW
q   1.9362416            (2000.0)            P               Q
n   0.30441841     Peri.  143.83512     +0.44744394     -0.89022323
a   2.1885448      Node   279.44490     +0.79884835     +0.44079267
e   0.1152836      Incl.    4.96767     +0.40203885     +0.11491051
P   3.24
From 184 observations 2005 Jan. 17-2018 Mar. 7, mean residual 0".3.

* Magnitudes Graph

        H = 17.5  G = 0.15

---------------------------------------------------------------------

The orbital elements are published on M.P.E.C. 2018-F152.
The magnitudes graphs are made with Comet for Windows.

---------------------------------------------------------------------

Copyright(C) Seiichi Yoshida (comet@aerith.net). All rights reserved.